Regional Weather Roundup
Issued by NWS

Home | Current Version | Previous Version | Graphics & Text | Print | Product List | Glossary On
Versions: 1 2 3 4 5 6 7 8 9 10 11 12 13 14 15 16 17 18 19 20 21 22 23 24 25 26 27 28 29 30 31 32 33 34 35 36 37 38 39 40 41 42 43 44 45 46 47 48 49 50
116
ASUS45 KCYS 260310
RWRWY

WYOMING REGIONAL WEATHER ROUNDUP
NATIONAL WEATHER SERVICE CHEYENNE WY
900 PM MDT WED APR 25 2018

NOTE:  "FAIR" INDICATES FEW OR NO CLOUDS BELOW 12,000 FEET
WITH NO SIGNIFICANT WEATHER AND/OR OBSTRUCTIONS TO VISIBILITY.

WYZ001-260400-
YELLOWSTONE NATIONAL PARK

CITY           SKY/WX    TMP DP  RH WIND       PRES   REMARKS
LK YELLOWSTONE   N/A     36  30  79 NW5       30.24R WCI  32
W YELLOWSTONE  NOT AVBL

$$
WYZ002>013-054>058-071-098>099-260400-
NORTHERN WYOMING

CITY           SKY/WX    TMP DP  RH WIND       PRES   REMARKS
JACKSON        FAIR      51  19  28 SW3       30.17R
CODY           FAIR      49  31  49 N33       30.16R
GREYBULL       MOCLDY    56  32  40 NW24G33   30.08R
WORLAND        FAIR      58  24  27 N28G36    30.04R
SHERIDAN       FAIR      54  32  43 NW28G33   30.12R
BUFFALO        FAIR      53  26  35 NW29G38   30.10R
GILLETTE       FAIR      51  31  46 N14       30.04R
HULETT         FAIR      55  28  35 N9G20     30.03R
NEWCASTLE      FAIR      55  19  24 N18       29.96R

$$
WYZ014>020-022>026-101>103-260400-
CENTRAL WYOMING

CITY           SKY/WX    TMP DP  RH WIND       PRES   REMARKS
BIG PINEY      FAIR      49  20  31 N14G21    30.16R
PINEDALE       FAIR      43  21  42 NW12      30.17R
DUBOIS         FAIR      45  16  31 W15       30.15R
LANDER         FAIR      57  19  22 NW17      30.03R
RIVERTON       FAIR      54  16  22 N23G31    30.06R
CASPER         FAIR      51  19  28 N15       30.03R
DOUGLAS        FAIR      55  24  30 N21G32    29.99R

$$
WYZ021-027>030-104>119-260400-
SOUTHERN WYOMING

CITY           SKY/WX    TMP DP  RH WIND       PRES   REMARKS
EVANSTON       FAIR      49  18  29 W12       30.20R
KEMMERER       FAIR      45  19  36 CALM      30.18R
FORT BRIDGER   FAIR      50  17  26 W14       30.19R
ROCK SPRINGS   FAIR      53  10  18 W15G25    30.12R
DIXON          FAIR      46  15  29 CALM      30.11F
RAWLINS        FAIR      49   9  19 SW7       30.05F
SARATOGA       FAIR      46   9  21 S13       30.09F
LARAMIE        FAIR      47  11  23 SW8       30.09R
CHEYENNE       FAIR      52  21  29 SW12      30.04S
TORRINGTON     FAIR      57  31  37 E7        29.90S
PINE BLUFFS    FAIR      46  30  53 S7        30.01R

$$




USA.gov is the U.S. government's official web portal to all federal, state and local government web resources and services.